[[{"header":{"parameterUnit":"m.s-1","parameterCategory":1,"la1":30.2991,"la2":30.254,"lo1":-89.0895,"lo2":-89.0444,"dy":0.0017,"dx":0.0017,"nx":28,"ny":28,"refTime":"2024-03-02T09:00:00:Z","depth":0,"parameterNumber":2,"parameterNumberName":"U-component_of_WINDS"},"data":[0,0,0,0,0,0,0,0,0,0,0,0,0,0,0,0,0,0,0,0,0,0,0,0,0,0,0,0,0,0,0,0,0,0,0,0,0,0,0,0,0,0,0,0,0,0,0,0,0,0,0,0,0,0,0,0,0,0,-1.8066,-1.8067,0,-1.8104,-1.8104,-1.8105,-1.8069,-1.8068,-1.8067,-1.8065,-1.8108,-1.811,-1.8113,0,0,0,0,0,0,0,0,0,0,0,0,0,-1.7968,-1.797,-1.8066,-1.8067,-1.8067,-1.8104,-1.8104,-1.8105,-1.807,-1.8068,-1.8066,-1.8065,-1.8107,-1.811,-1.8113,0,0,0,0,0,0,0,0,0,0,0,0,0,-1.8009,-1.7971,-1.8066,-1.8054,-1.8053,-1.8104,-1.8105,-1.8105,-1.807,-1.8068,-1.8066,-1.8064,-1.8106,-1.811,-1.8113,-1.8179,0,0,-1.8125,-1.8126,0,0,0,0,0,0,0,0,-1.8007,-1.8013,-1.8055,-1.8055,-1.8054,-1.808,-1.8085,-1.813,-1.8071,-1.8064,-1.8065,-1.8063,-1.8101,-1.8105,-1.8116,-1.8181,-1.8183,-1.8125,-1.8127,-1.8129,-1.813,0,0,0,0,0,0,0,-1.8004,-1.8011,-1.8081,-1.8056,-1.8055,-1.8048,-1.8051,-1.8094,-1.8094,-1.8064,-1.8062,-1.8066,-1.81,-1.8113,-1.8117,-1.8184,-1.8125,-1.8128,-1.8131,-1.8132,-1.8305,-1.8308,0,0,0,0,0,0,-1.8002,-1.8009,-1.808,-1.8083,-1.8025,-1.8052,-1.8055,-1.8074,-1.8093,-1.8094,-1.8068,-1.8065,-1.8108,-1.8113,-1.8119,-1.8197,-1.8129,-1.8132,-1.8134,-1.8303,-1.8306,-1.8308,0,0,0,0,0,0,-1.8,-1.8009,-1.8079,-1.8045,-1.8053,-1.8056,-1.8077,-1.8076,-1.8089,-1.8096,-1.8097,-1.8081,-1.8106,-1.8113,-1.8164,-1.8198,-1.8134,-1.8137,-1.83,-1.8304,-1.8307,-1.8355,0,0,0,0,0,0,-1.7997,-1.8008,-1.8032,-1.8046,-1.8055,-1.8123,-1.8079,-1.8078,-1.8095,-1.809,-1.8109,-1.811,-1.8105,-1.8159,-1.8168,-1.8202,-1.814,-1.8297,-1.8302,-1.8306,-1.835,-1.836,-1.8368,0,0,0,0,0,-1.7994,-1.8045,-1.8033,-1.8042,-1.8085,-1.8124,-1.813,-1.8123,-1.8098,-1.8122,-1.8127,-1.8109,-1.8193,-1.8164,-1.8174,-1.821,-1.8295,-1.83,-1.8306,-1.8346,-1.8358,-1.8367,0,0,0,0,0,0,-1.8036,-1.8046,-1.8034,-1.809,-1.8107,-1.8118,-1.8149,-1.8135,-1.816,-1.8155,-1.8146,-1.815,-1.8204,-1.8212,-1.818,-1.8275,-1.824,-1.8248,-1.8268,-1.8279,-1.8287,-1.8284,-1.8143,0,0,0,0,0,-1.8052,-1.8082,-1.809,-1.8139,-1.8148,-1.8147,-1.8164,-1.8157,-1.8174,-1.8181,-1.819,-1.8208,-1.8239,-1.8259,-1.8288,-1.8351,-1.8355,-1.8381,-1.839,-1.8397,-1.8403,-1.8438,-1.845,-1.8326,-1.8326,-1.8326,0,0,-1.8085,-1.8094,-1.8114,-1.8148,-1.8159,-1.8192,-1.8153,-1.8189,-1.8213,-1.8187,-1.8235,-1.8243,-1.8263,-1.832,-1.8346,-1.8329,-1.8439,-1.8404,-1.8409,-1.8412,-1.8445,-1.8457,-1.8467,-1.833,-1.8329,-1.8328,0,0,-1.8162,-1.8172,-1.8214,-1.8226,-1.8244,-1.8244,-1.8254,-1.8268,-1.8271,-1.8319,-1.83,-1.833,-1.8383,-1.8398,-1.8413,-1.8496,-1.8481,-1.8506,-1.8551,-1.8585,-1.8595,-1.8604,-1.8634,-1.8645,-1.8513,-1.8513,-1.8513,0,-1.8201,-1.8248,-1.8238,-1.8275,-1.8291,-1.8267,-1.831,-1.8324,-1.8351,-1.8363,-1.8343,-1.8409,-1.8421,-1.8482,-1.8502,-1.8515,-1.8527,-1.8504,-1.8594,-1.8603,-1.8611,-1.864,-1.8651,-1.8516,-1.8515,-1.8515,-1.8515,0,-1.8295,-1.8328,-1.836,-1.8386,-1.8405,-1.8445,-1.8443,-1.8464,-1.8456,-1.8458,-1.8508,-1.8521,-1.8552,-1.8566,-1.8559,-1.8627,-1.8615,-1.8595,-1.856,-1.8626,-1.8653,-1.8663,-1.852,-1.8519,-1.8518,-1.8517,0,0,-1.8399,-1.8418,-1.843,-1.8442,-1.846,-1.8486,-1.8526,-1.8555,-1.8574,-1.8594,-1.8628,-1.8673,-1.8654,-1.8671,-1.8665,-1.8695,-1.8761,-1.8672,-1.8672,-1.8688,-1.8838,-1.8853,-1.8865,-1.8751,-1.8753,-1.8755,-1.8836,0,-1.8477,-1.8544,-1.8536,-1.8601,-1.8632,-1.861,-1.8645,-1.8661,-1.8665,-1.8693,-1.8697,-1.8729,-1.8702,-1.8712,-1.8741,-1.8747,-1.8791,-1.8741,-1.8784,-1.8785,-1.8779,-1.8879,-1.8895,-1.8971,-1.8846,-1.8848,-1.8849,0,-1.8576,-1.8597,-1.8665,-1.8679,-1.8692,-1.8723,-1.8749,-1.8776,-1.8794,-1.8795,-1.8814,-1.8803,-1.8845,-1.8808,-1.8866,-1.8832,-1.885,-1.8856,-1.8858,-1.8862,-1.8821,-1.8886,-1.8995,-1.9006,-1.8866,-1.8865,-1.8863,0,-1.8645,-1.8691,-1.8738,-1.8748,-1.8766,-1.8788,-1.8797,-1.8813,-1.8831,-1.8855,-1.8867,-1.8896,-1.8912,-1.8935,-1.8933,-1.8907,-1.8993,-1.8956,-1.8995,-1.8995,-1.9014,-1.9012,-1.9127,-1.9025,-1.9025,-1.9025,-1.9025,0,-1.8731,-1.8774,-1.8769,-1.8798,-1.8845,-1.8836,-1.8884,-1.889,-1.8905,-1.8935,-1.8919,-1.8949,-1.8944,-1.8974,-1.8973,-1.9022,-1.9029,-1.9032,-1.9031,-1.9033,-1.9033,-1.9044,-1.9039,-1.9028,-1.9027,-1.9027,-1.9026,0,-1.8816,-1.8815,-1.8864,-1.8876,-1.8881,-1.8915,-1.8926,-1.8954,-1.8956,-1.8995,-1.9004,-1.9008,-1.9043,-1.9043,-1.9083,-1.9082,-1.9142,-1.9135,-1.9135,-1.9134,-1.9172,-1.9169,-1.9298,-1.9315,-1.9202,-1.9203,-1.9204,0,-1.8872,-1.8903,-1.8919,-1.8938,-1.8947,-1.8978,-1.8996,-1.899,-1.901,-1.9033,-1.9059,-1.9091,-1.9117,-1.9174,-1.9181,-1.9212,-1.9206,-1.9249,-1.9211,-1.9212,-1.9207,-1.9205,-1.9208,-1.9257,-1.9258,-1.9259,-1.926,0,-1.897,-1.8968,-1.8994,-1.902,-1.9042,-1.9062,-1.9081,-1.9098,-1.9094,-1.9118,-1.9152,-1.9172,-1.9212,-1.9246,-1.9275,-1.9286,-1.9273,-1.9272,-1.9283,-1.9285,-1.9284,-1.9285,-1.9155,-1.9269,-1.9268,-1.9267,-1.9267,-1.9267,-1.9042,-1.9069,-1.9084,-1.9114,-1.9128,-1.9146,-1.9173,-1.9178,-1.9206,-1.9237,-1.9232,-1.9271,-1.929,-1.9328,-1.9342,-1.9373,-1.9358,-1.9373,-1.9377,-1.9381,-1.9385,-1.9279,-1.9378,-1.9378,-1.9378,-1.9378,-1.9377,0,-1.9139,-1.9148,-1.9175,-1.9202,-1.9226,-1.921,-1.9231,-1.9252,-1.9286,-1.9304,-1.9329,-1.9369,-1.9402,-1.9412,-1.9443,-1.9467,-1.9461,-1.9475,-1.9473,-1.9476,-1.9397,-1.9384,-1.9479,-1.9479,-1.9479,-1.9479,-1.9479,-1.9479,-1.9193,-1.9238,-1.9238,-1.929,-1.9299,-1.9336,-1.9349,-1.9366,-1.938,-1.9425,-1.9451,-1.9457,-1.9473,-1.9506,-1.9535,-1.9537,-1.955,-1.9566,-1.9566,-1.9492,-1.9482,-1.9472,-1.946,-1.9569,-1.9569,-1.9643,-1.9643,-1.9644]},{"header":{"parameterUnit":"m.s-1","parameterCategory":1,"la1":30.2991,"la2":30.254,"lo1":-89.0895,"lo2":-89.0444,"dy":0.0017,"dx":0.0017,"nx":28,"ny":28,"refTime":"2024-03-02T09:00:00:Z","depth":0,"parameterNumber":3,"parameterNumberName":"V-component_of_WINDS"},"data":[0,0,0,0,0,0,0,0,0,0,0,0,0,0,0,0,0,0,0,0,0,0,0,0,0,0,0,0,0,0,0,0,0,0,0,0,0,0,0,0,0,0,0,0,0,0,0,0,0,0,0,0,0,0,0,0,0,0,-0.0071,-0.007,0,-0.003,-0.0029,-0.0029,-0.0008,-0.0008,-0.0008,-0.0008,0.0034,0.0035,0.0037,0,0,0,0,0,0,0,0,0,0,0,0,0,-0.013,-0.0129,-0.0071,-0.007,-0.007,-0.003,-0.0029,-0.0029,-0.0008,-0.0008,-0.0008,-0.0008,0.0034,0.0035,0.0037,0,0,0,0,0,0,0,0,0,0,0,0,0,-0.0099,-0.0129,-0.0071,-0.0055,-0.0053,-0.003,-0.0029,-0.0029,-0.0008,-0.0008,-0.0008,-0.0008,0.0034,0.0035,0.0037,0.0047,0,0,0.0042,0.0043,0,0,0,0,0,0,0,0,-0.01,-0.0096,-0.0058,-0.0056,-0.0054,-0.0024,-0.0035,-0.0003,-0.0008,-0.0025,-0.0008,-0.0008,0.0015,0.0018,0.0026,0.0049,0.005,0.0042,0.0043,0.0044,0.0044,0,0,0,0,0,0,0,-0.0103,-0.0098,-0.0055,-0.0057,-0.0055,-0.0049,-0.0045,-0.0029,-0.0006,-0.0023,-0.0022,-0.0017,0.0016,0.0024,0.0027,0.0051,0.0042,0.0043,0.0045,0.0045,0.0085,0.0085,0,0,0,0,0,0,-0.0108,-0.01,-0.0056,-0.0053,-0.0077,-0.0048,-0.0043,-0.0033,-0.0006,-0.0001,-0.0017,-0.0016,0.0021,0.0025,0.0029,0.0043,0.0044,0.0045,0.0046,0.0085,0.0085,0.0085,0,0,0,0,0,0,-0.0109,-0.0104,-0.0058,-0.0076,-0.007,-0.0047,-0.0037,-0.0033,-0.0025,-0.0001,0.0003,-0.0013,0.0021,0.0026,0.0042,0.0044,0.0046,0.0048,0.0085,0.0085,0.0085,0.007,0,0,0,0,0,0,-0.0111,-0.0104,-0.0101,-0.0076,-0.0069,-0.0045,-0.0036,-0.0032,-0.0022,-0.002,0.0004,0.0008,0.0022,0.004,0.0044,0.0047,0.0049,0.0085,0.0085,0.0085,0.007,0.007,0.0069,0,0,0,0,0,-0.0113,-0.0107,-0.0101,-0.0095,-0.0064,-0.0045,-0.0041,-0.0025,-0.0022,-0.0018,-0.0002,0.0007,0.0043,0.0041,0.0046,0.0049,0.0085,0.0085,0.0085,0.0071,0.007,0.0069,0,0,0,0,0,0,-0.0132,-0.0103,-0.0096,-0.0082,-0.0066,-0.0041,-0.0036,-0.0026,-0.0011,-0.001,0.0009,0.0015,0.0029,0.0041,0.0038,0.0061,0.0065,0.0066,0.0052,0.0052,0.0051,0.0048,0.005,0,0,0,0,0,-0.0134,-0.0121,-0.0097,-0.0087,-0.0079,-0.0059,-0.005,-0.0039,-0.0021,-0.0015,0.0002,0.0018,0.0034,0.0043,0.0059,0.0072,0.0078,0.0077,0.0076,0.0075,0.0076,0.0085,0.0085,0.0086,0.0086,0.0086,0,0,-0.0139,-0.0122,-0.0115,-0.009,-0.0077,-0.0063,-0.0053,-0.004,-0.003,-0.0013,0.0004,0.0016,0.0036,0.0051,0.0059,0.0062,0.0077,0.0076,0.0075,0.0076,0.0085,0.0085,0.0085,0.0086,0.0086,0.0086,0,0,-0.0142,-0.0128,-0.0117,-0.0104,-0.0083,-0.0069,-0.0067,-0.0043,-0.0034,-0.0017,-0.0004,0.0009,0.0034,0.0048,0.0059,0.0063,0.0072,0.0067,0.0063,0.0071,0.0071,0.0071,0.0073,0.0074,0.0068,0.0068,0.0068,0,-0.0151,-0.013,-0.0113,-0.01,-0.0089,-0.0073,-0.0062,-0.0049,-0.0025,-0.0017,-0.0015,0.0019,0.0033,0.0052,0.0053,0.0061,0.0065,0.0064,0.007,0.007,0.007,0.0072,0.0073,0.0067,0.0067,0.0067,0.0067,0,-0.0142,-0.0128,-0.0122,-0.0098,-0.0087,-0.0075,-0.0055,-0.0046,-0.0035,-0.0022,-0.0005,0.0013,0.0033,0.0038,0.0048,0.0059,0.006,0.0066,0.0071,0.0069,0.0072,0.0072,0.0066,0.0066,0.0066,0.0067,0,0,-0.0156,-0.0122,-0.012,-0.0109,-0.0084,-0.0073,-0.006,-0.004,-0.0032,-0.0015,-0.0004,0.0018,0.0024,0.0036,0.0048,0.0055,0.0058,0.006,0.0061,0.0059,0.0071,0.0067,0.0067,0.0064,0.0064,0.0064,0.007,0,-0.0154,-0.013,-0.0114,-0.0096,-0.0083,-0.0067,-0.0055,-0.0039,-0.0026,-0.0012,0.0003,0.0018,0.0025,0.0032,0.004,0.0056,0.006,0.0055,0.0076,0.0076,0.007,0.0068,0.0064,0.0068,0.0071,0.0071,0.0071,0,-0.015,-0.0133,-0.0114,-0.009,-0.0084,-0.0074,-0.0054,-0.0041,-0.0022,-0.0013,0.0001,0.0013,0.0028,0.0031,0.0052,0.0049,0.0058,0.0067,0.0067,0.007,0.0073,0.0071,0.0069,0.007,0.0072,0.0072,0.0072,0,-0.0161,-0.0134,-0.0119,-0.0109,-0.0081,-0.0075,-0.0063,-0.0043,-0.0032,-0.0015,-0.0008,0.0011,0.0021,0.0035,0.0052,0.0053,0.0072,0.0077,0.008,0.008,0.0083,0.0083,0.0083,0.0089,0.0089,0.0089,0.0089,0,-0.0161,-0.015,-0.0123,-0.0114,-0.0101,-0.0082,-0.0069,-0.0056,-0.0038,-0.0026,-0.0011,0.0001,0.0023,0.0037,0.005,0.0066,0.007,0.0078,0.0082,0.0077,0.0076,0.0084,0.0084,0.0089,0.0089,0.0089,0.0089,0,-0.0171,-0.0153,-0.0135,-0.011,-0.0103,-0.0095,-0.0073,-0.0063,-0.0049,-0.0033,-0.0028,-0.0006,0.0012,0.0031,0.0054,0.0063,0.0079,0.0083,0.0072,0.0074,0.0077,0.0077,0.0082,0.0084,0.0088,0.0088,0.0088,0,-0.0172,-0.0163,-0.0137,-0.0127,-0.0115,-0.01,-0.0089,-0.007,-0.0059,-0.0035,-0.0028,-0.0009,0.0007,0.0034,0.0053,0.0071,0.0077,0.0077,0.008,0.0075,0.0077,0.0077,0.0078,0.0077,0.0076,0.0076,0.0076,0,-0.0176,-0.0167,-0.0152,-0.0133,-0.0119,-0.0103,-0.0087,-0.008,-0.0057,-0.0046,-0.0027,-0.0015,0.001,0.0029,0.005,0.0063,0.0073,0.0075,0.0077,0.0073,0.0066,0.007,0.0071,0.0075,0.0075,0.0075,0.0075,0.0076,-0.0181,-0.0172,-0.0152,-0.0135,-0.012,-0.0105,-0.0094,-0.0078,-0.0063,-0.0041,-0.0031,-0.0012,0.0008,0.0037,0.005,0.0065,0.0068,0.007,0.0071,0.0071,0.007,0.0064,0.0068,0.0069,0.0069,0.0069,0.0069,0,-0.0184,-0.017,-0.0154,-0.0131,-0.0118,-0.0109,-0.009,-0.0079,-0.0062,-0.0045,-0.0029,-0.0008,0.0011,0.0031,0.0051,0.0059,0.0064,0.0063,0.0063,0.0066,0.0066,0.0063,0.0059,0.0059,0.0059,0.0059,0.0059,0.0059,-0.0184,-0.0168,-0.0156,-0.0133,-0.0118,-0.01,-0.009,-0.0076,-0.0061,-0.0038,-0.0022,-0.0009,0.001,0.0031,0.0048,0.0054,0.0061,0.0058,0.0065,0.0065,0.0066,0.0067,0.0064,0.0059,0.0059,0.0064,0.0064,0.0064]}]]